Radiation Dose at Monitoring Post of Fukushima Daini Nuclear Power Station
Date,Time,MP-1(microSv/h),MP-2(microSv/h),MP-3(microSv/h),MP-4(microSv/h),MP-5(microSv/h),MP-6(microSv/h),MP-7(microSv/h),Wind Direction,Wind Velocity(m/s),Rain
2016/01/02,00:00,0.463,0.271,0.488,0.442,0.420,0.222,0.195,west,5.3,No
2016/01/02,00:10,0.464,0.269,0.486,0.442,0.420,0.222,0.195,west,4.3,No
2016/01/02,00:20,0.464,0.270,0.487,0.442,0.421,0.221,0.195,west,4.0,No
2016/01/02,00:30,0.463,0.270,0.486,0.442,0.421,0.222,0.196,west-northwest,4.7,No
2016/01/02,00:40,0.462,0.270,0.484,0.442,0.420,0.221,0.196,west,3.7,No
2016/01/02,00:50,0.462,0.271,0.488,0.442,0.421,0.222,0.195,west,3.1,No
2016/01/02,01:00,0.463,0.270,0.486,0.444,0.421,0.223,0.195,west,3.2,No
2016/01/02,01:10,0.463,0.270,0.486,0.443,0.420,0.222,0.195,west,2.6,No
2016/01/02,01:20,0.462,0.271,0.487,0.441,0.421,0.222,0.194,west-southwest,1.9,No
2016/01/02,01:30,0.462,0.271,0.487,0.442,0.420,0.222,0.196,west,2.7,No
2016/01/02,01:40,0.461,0.270,0.487,0.443,0.422,0.223,0.195,west,2.3,No
2016/01/02,01:50,0.463,0.269,0.488,0.444,0.420,0.223,0.195,west,3.9,No
2016/01/02,02:00,0.462,0.271,0.485,0.442,0.421,0.222,0.195,west-southwest,4.6,No
2016/01/02,02:10,0.462,0.269,0.487,0.442,0.422,0.222,0.195,southwest,5.1,No
2016/01/02,02:20,0.461,0.270,0.487,0.442,0.420,0.223,0.195,southwest,5.6,No
2016/01/02,02:30,0.463,0.270,0.485,0.443,0.421,0.222,0.196,west-southwest,4.5,No
2016/01/02,02:40,0.462,0.270,0.485,0.444,0.421,0.223,0.195,west,2.9,No
2016/01/02,02:50,0.460,0.270,0.486,0.442,0.420,0.221,0.195,west-southwest,3.8,No
2016/01/02,03:00,0.462,0.269,0.487,0.443,0.420,0.223,0.195,west-southwest,5.8,No
2016/01/02,03:10,0.463,0.269,0.486,0.442,0.422,0.223,0.195,west-southwest,8.9,No
2016/01/02,03:20,0.462,0.270,0.485,0.443,0.420,0.222,0.195,west-southwest,8.7,No
2016/01/02,03:30,0.462,0.270,0.485,0.442,0.420,0.221,0.195,southwest,8.4,No
2016/01/02,03:40,0.463,0.271,0.487,0.443,0.420,0.221,0.195,southwest,8.4,No
2016/01/02,03:50,0.462,0.269,0.486,0.444,0.421,0.222,0.196,south-southwest,7.4,No
2016/01/02,04:00,0.462,0.270,0.488,0.444,0.421,0.221,0.195,south-southwest,7.7,No
2016/01/02,04:10,0.462,0.270,0.486,0.443,0.420,0.221,0.197,south-southwest,8.6,No
2016/01/02,04:20,0.462,0.270,0.488,0.442,0.419,0.222,0.196,south-southwest,10.0,No
2016/01/02,04:30,0.461,0.270,0.486,0.445,0.421,0.222,0.196,south-southwest,9.6,No
2016/01/02,04:40,0.464,0.270,0.485,0.443,0.420,0.221,0.195,south-southwest,10.0,No
2016/01/02,04:50,0.463,0.270,0.485,0.442,0.420,0.222,0.196,south-southwest,7.8,No
2016/01/02,05:00,0.460,0.269,0.488,0.442,0.421,0.223,0.194,southwest,8.2,No
2016/01/02,05:10,0.461,0.270,0.485,0.443,0.422,0.222,0.195,south-southwest,9.3,No
2016/01/02,05:20,0.463,0.271,0.486,0.444,0.422,0.222,0.195,south-southwest,9.5,No
2016/01/02,05:30,0.465,0.269,0.488,0.442,0.420,0.223,0.196,south-southwest,11.2,No
2016/01/02,05:40,0.462,0.270,0.486,0.442,0.420,0.222,0.195,south-southwest,11.2,No
2016/01/02,05:50,0.464,0.270,0.485,0.442,0.422,0.222,0.196,south-southwest,10.6,No
2016/01/02,06:00,0.464,0.270,0.486,0.443,0.421,0.221,0.196,south-southwest,10.0,No
2016/01/02,06:10,0.463,0.270,0.487,0.441,0.422,0.222,0.196,south-southwest,9.8,No
2016/01/02,06:20,0.461,0.271,0.487,0.442,0.422,0.222,0.195,south-southwest,9.5,No
2016/01/02,06:30,0.462,0.271,0.487,0.444,0.422,0.223,0.196,south-southwest,11.5,No
2016/01/02,06:40,0.464,0.270,0.488,0.443,0.423,0.223,0.196,south-southwest,10.3,No
2016/01/02,06:50,0.465,0.271,0.487,0.442,0.420,0.222,0.195,south-southwest,10.0,No
2016/01/02,07:00,0.463,0.269,0.485,0.444,0.421,0.221,0.195,south-southwest,9.2,No
2016/01/02,07:10,0.464,0.269,0.487,0.445,0.423,0.222,0.196,south-southwest,9.6,No
2016/01/02,07:20,0.463,0.271,0.489,0.445,0.422,0.223,0.196,south-southwest,9.5,No
2016/01/02,07:30,0.463,0.271,0.486,0.443,0.421,0.221,0.195,south-southwest,10.3,No
2016/01/02,07:40,0.460,0.270,0.488,0.445,0.420,0.222,0.195,south-southwest,11.7,No
2016/01/02,07:50,0.465,0.269,0.488,0.443,0.422,0.223,0.195,south-southwest,11.7,No
2016/01/02,08:00,0.464,0.271,0.487,0.443,0.421,0.222,0.196,south-southwest,12.3,No
2016/01/02,08:10,0.462,0.270,0.486,0.442,0.419,0.223,0.195,south-southwest,12.6,No
2016/01/02,08:20,0.465,0.271,0.487,0.444,0.421,0.222,0.195,south-southwest,11.7,No
2016/01/02,08:30,0.462,0.270,0.487,0.442,0.421,0.223,0.196,south-southwest,11.5,No
2016/01/02,08:40,0.462,0.269,0.484,0.442,0.421,0.223,0.195,south-southwest,10.1,No
2016/01/02,08:50,0.463,0.271,0.485,0.443,0.421,0.222,0.195,south-southwest,9.8,No
2016/01/02,09:00,0.464,0.269,0.487,0.443,0.421,0.222,0.196,south-southwest,9.6,No
2016/01/02,09:10,0.462,0.271,0.485,0.440,0.420,0.223,0.195,south-southwest,9.5,No
2016/01/02,09:20,0.465,0.272,0.485,0.443,0.422,0.222,0.195,south-southwest,8.4,No
2016/01/02,09:30,0.463,0.269,0.487,0.443,0.422,0.222,0.195,south-southwest,7.3,No
2016/01/02,09:40,0.461,0.271,0.485,0.442,0.421,0.222,0.195,south-southwest,8.8,No
2016/01/02,09:50,0.466,0.271,0.485,0.442,0.420,0.223,0.194,south-southwest,10.1,No
2016/01/02,10:00,0.462,0.269,0.487,0.444,0.422,0.223,0.195,southwest,8.8,No
2016/01/02,10:10,0.463,0.270,0.485,0.443,0.422,0.222,0.195,south-southwest,7.6,No
2016/01/02,10:20,0.462,0.271,0.487,0.442,0.421,0.222,0.195,south-southwest,7.6,No
2016/01/02,10:30,0.461,0.269,0.487,0.444,0.422,0.222,0.195,south-southwest,6.7,No
2016/01/02,10:40,0.465,0.271,0.485,0.442,0.421,0.222,0.195,south-southwest,7.0,No
2016/01/02,10:50,0.462,0.270,0.489,0.444,0.421,0.223,0.196,south-southwest,6.4,No
2016/01/02,11:00,0.464,0.269,0.485,0.444,0.420,0.223,0.195,south-southwest,6.1,No
2016/01/02,11:10,0.463,0.271,0.488,0.443,0.421,0.222,0.194,southwest,4.7,No
2016/01/02,11:20,0.461,0.271,0.487,0.444,0.422,0.223,0.195,southwest,6.6,No
2016/01/02,11:30,0.465,0.270,0.484,0.442,0.422,0.223,0.195,south-southwest,4.0,No
2016/01/02,11:40,0.462,0.270,0.488,0.445,0.421,0.222,0.194,south-southwest,5.2,No
2016/01/02,11:50,0.465,0.268,0.484,0.443,0.422,0.223,0.194,south,3.5,No
2016/01/02,12:00,0.460,0.269,0.487,0.443,0.420,0.224,0.195,south,5.2,No
2016/01/02,12:10,0.462,0.270,0.484,0.443,0.425,0.223,0.196,south,4.2,No
2016/01/02,12:20,0.461,0.269,0.485,0.440,0.421,0.224,0.196,south,4.8,No
2016/01/02,12:30,0.462,0.269,0.483,0.444,0.424,0.223,0.195,south,7.0,No
2016/01/02,12:40,0.461,0.270,0.486,0.441,0.419,0.222,0.196,south,8.1,No
2016/01/02,12:50,0.462,0.269,0.483,0.443,0.422,0.223,0.195,south,8.1,No
2016/01/02,13:00,0.463,0.270,0.487,0.442,0.421,0.222,0.195,south,9.2,No
2016/01/02,13:10,0.462,0.271,0.482,0.444,0.423,0.223,0.196,south,8.5,No
2016/01/02,13:20,0.463,0.269,0.488,0.442,0.422,0.223,0.196,south,8.7,No
2016/01/02,13:30,0.463,0.270,0.484,0.445,0.424,0.223,0.194,south,7.5,No
2016/01/02,13:40,0.464,0.270,0.487,0.442,0.423,0.222,0.196,south,8.7,No
2016/01/02,13:50,0.463,0.270,0.484,0.444,0.424,0.222,0.194,south,9.3,No
2016/01/02,14:00,0.466,0.271,0.487,0.443,0.424,0.222,0.195,south,8.8,No
2016/01/02,14:10,0.463,0.270,0.483,0.445,0.422,0.223,0.195,south,8.1,No
2016/01/02,14:20,0.467,0.270,0.489,0.442,0.425,0.222,0.195,south,8.4,No
2016/01/02,14:30,0.463,0.271,0.486,0.444,0.421,0.223,0.196,south,8.9,No
2016/01/02,14:40,0.465,0.270,0.489,0.441,0.426,0.223,0.196,south,7.0,No
2016/01/02,14:50,0.463,0.271,0.484,0.443,0.422,0.222,0.196,south,7.9,No
2016/01/02,15:00,0.463,0.270,0.487,0.442,0.425,0.222,0.196,south,6.8,No
2016/01/02,15:10,0.464,0.269,0.486,0.446,0.423,0.222,0.195,south,3.9,No
2016/01/02,15:20,0.462,0.272,0.487,0.444,0.422,0.221,0.196,south-southwest,4.1,No
2016/01/02,15:30,0.464,0.270,0.487,0.442,0.424,0.223,0.195,south-southwest,3.5,No
2016/01/02,15:40,0.461,0.271,0.485,0.444,0.421,0.222,0.196,south-southwest,2.1,No
2016/01/02,15:50,0.465,0.270,0.486,0.443,0.426,0.223,0.195,south-southwest,2.7,No
2016/01/02,16:00,0.463,0.269,0.484,0.445,0.421,0.221,0.195,south-southwest,1.4,No
2016/01/02,16:10,0.463,0.272,0.488,0.442,0.426,0.222,0.196,southwest,3.0,No
2016/01/02,16:20,0.462,0.269,0.484,0.445,0.423,0.223,0.196,west-southwest,1.9,No
2016/01/02,16:30,0.462,0.270,0.486,0.443,0.423,0.222,0.195,south-southwest,2.5,No
2016/01/02,16:40,0.468,0.271,0.486,0.443,0.424,0.222,0.196,southwest,2.9,No
2016/01/02,16:50,0.465,0.271,0.487,0.444,0.421,0.222,0.196,south-southwest,1.7,No
2016/01/02,17:00,0.464,0.271,0.490,0.442,0.423,0.222,0.196,south-southwest,2.6,No
2016/01/02,17:10,0.465,0.271,0.486,0.446,0.423,0.223,0.196,south-southwest,2.4,No
2016/01/02,17:20,0.462,0.271,0.488,0.444,0.422,0.223,0.195,south,3.0,No
2016/01/02,17:30,0.465,0.271,0.488,0.444,0.422,0.222,0.196,south,3.3,No
2016/01/02,17:40,0.463,0.270,0.487,0.445,0.423,0.223,0.194,south,3.6,No
2016/01/02,17:50,0.463,0.270,0.488,0.444,0.422,0.223,0.196,south-southwest,3.2,No
2016/01/02,18:00,0.467,0.270,0.486,0.442,0.422,0.222,0.196,west-southwest,1.9,No
2016/01/02,18:10,0.464,0.270,0.486,0.445,0.423,0.222,0.197,-,CALM,No
2016/01/02,18:20,0.463,0.272,0.488,0.443,0.421,0.222,0.196,south,2.4,No
2016/01/02,18:30,0.464,0.271,0.487,0.444,0.421,0.223,0.196,south-southwest,2.2,No
2016/01/02,18:40,0.465,0.272,0.485,0.445,0.422,0.223,0.196,south-southwest,2.0,No
2016/01/02,18:50,0.463,0.270,0.487,0.444,0.420,0.222,0.195,south-southwest,2.4,No
2016/01/02,19:00,0.465,0.272,0.485,0.442,0.421,0.222,0.197,south-southwest,2.0,No
2016/01/02,19:10,0.463,0.273,0.486,0.443,0.423,0.223,0.196,south-southwest,2.3,No
2016/01/02,19:20,0.464,0.270,0.489,0.444,0.420,0.224,0.196,south-southwest,1.7,No
2016/01/02,19:30,0.465,0.270,0.486,0.443,0.421,0.222,0.196,southwest,2.7,No
2016/01/02,19:40,0.462,0.271,0.486,0.444,0.423,0.223,0.195,southwest,1.4,No
2016/01/02,19:50,0.463,0.272,0.488,0.444,0.422,0.223,0.196,south,1.9,No
2016/01/02,20:00,0.464,0.270,0.486,0.443,0.422,0.223,0.196,south-southwest,2.3,No
2016/01/02,20:10,0.464,0.271,0.487,0.444,0.423,0.222,0.196,south-southwest,2.0,No
2016/01/02,20:20,0.462,0.270,0.489,0.443,0.422,0.222,0.197,south-southeast,0.9,No
2016/01/02,20:30,0.465,0.272,0.485,0.442,0.421,0.222,0.196,south,1.8,No
2016/01/02,20:40,0.464,0.269,0.486,0.445,0.423,0.222,0.195,south-southeast,1.0,No
2016/01/02,20:50,0.464,0.270,0.487,0.444,0.422,0.224,0.196,-,CALM,No
2016/01/02,21:00,0.464,0.271,0.488,0.442,0.420,0.224,0.196,south,1.5,No
2016/01/02,21:10,0.464,0.271,0.485,0.444,0.422,0.223,0.196,south-southwest,1.4,No
2016/01/02,21:20,0.463,0.272,0.487,0.445,0.422,0.222,0.196,west-southwest,1.1,No
2016/01/02,21:30,0.465,0.271,0.489,0.444,0.420,0.224,0.196,southwest,1.1,No
2016/01/02,21:40,0.463,0.272,0.487,0.445,0.423,0.223,0.195,southwest,2.5,No
2016/01/02,21:50,0.464,0.271,0.488,0.445,0.423,0.222,0.195,southwest,2.8,No
2016/01/02,22:00,0.462,0.271,0.488,0.444,0.420,0.223,0.196,south-southwest,3.6,No
2016/01/02,22:10,0.465,0.269,0.486,0.442,0.423,0.223,0.195,south-southwest,3.7,No
2016/01/02,22:20,0.463,0.269,0.488,0.446,0.423,0.223,0.197,southwest,3.9,No
2016/01/02,22:30,0.464,0.271,0.487,0.443,0.420,0.223,0.197,southwest,3.3,No
2016/01/02,22:40,0.464,0.270,0.487,0.444,0.423,0.224,0.196,southwest,3.4,No
2016/01/02,22:50,0.464,0.270,0.486,0.444,0.421,0.225,0.196,south-southwest,2.4,No
2016/01/02,23:00,0.463,0.271,0.486,0.443,0.420,0.223,0.195,south-southwest,1.4,No
2016/01/02,23:10,0.465,0.270,0.487,0.445,0.422,0.222,0.196,south-southwest,3.3,No
2016/01/02,23:20,0.464,0.271,0.488,0.444,0.423,0.222,0.196,southwest,3.8,No
2016/01/02,23:30,0.463,0.272,0.489,0.443,0.423,0.225,0.198,south-southwest,4.3,No
2016/01/02,23:40,0.465,0.271,0.487,0.445,0.423,0.224,0.195,southwest,3.9,No
2016/01/02,23:50,0.465,0.272,0.487,0.444,0.423,0.223,0.197,south-southwest,4.0,No
